TimeMDT,TemperatureF,Dew PointF,Humidity,Sea Level PressureIn,VisibilityMPH,Wind Direction,Wind SpeedMPH,Gust SpeedMPH,PrecipitationIn,Events,Conditions,WindDirDegrees,DateUTC
12:53 AM,37.0,33.1,86,29.97,10.0,ESE,8.1,-,0.01,Rain,Light Rain,110,2012-10-24 06:53:00
1:53 AM,36.0,34.0,93,29.96,10.0,SSE,3.5,-,0.00,,Overcast,160,2012-10-24 07:53:00
2:53 AM,37.0,32.0,82,29.97,10.0,Calm,Calm,-,0.00,Rain,Light Rain,0,2012-10-24 08:53:00
3:13 AM,37.4,33.8,87,29.98,10.0,Calm,Calm,-,0.00,Rain,Light Rain,0,2012-10-24 09:13:00
3:20 AM,37.4,33.8,87,29.98,10.0,Calm,Calm,-,0.00,Rain,Light Rain,0,2012-10-24 09:20:00
3:53 AM,36.0,33.1,89,29.97,10.0,WNW,3.5,-,0.00,,Overcast,290,2012-10-24 09:53:00
4:12 AM,35.6,33.8,93,29.98,10.0,WNW,5.8,-,0.00,Rain,Light Rain,300,2012-10-24 10:12:00
4:19 AM,35.6,33.8,93,29.98,10.0,WNW,4.6,-,0.00,Rain,Light Rain,300,2012-10-24 10:19:00
4:36 AM,35.6,33.8,93,29.98,10.0,NNW,8.1,-,0.00,Rain,Light Rain,340,2012-10-24 10:36:00
4:44 AM,35.6,33.8,93,29.97,10.0,NNW,8.1,-,0.01,Rain,Light Rain,330,2012-10-24 10:44:00
4:53 AM,35.1,33.1,92,29.96,10.0,NNW,6.9,-,0.01,Rain,Light Rain,340,2012-10-24 10:53:00
5:37 AM,35.6,33.8,93,29.99,10.0,North,4.6,-,0.01,Rain,Light Rain,350,2012-10-24 11:37:00
5:53 AM,35.1,33.1,92,29.99,10.0,North,5.8,-,0.01,Rain,Light Rain,360,2012-10-24 11:53:00
6:06 AM,33.8,33.8,100,29.99,10.0,NNW,5.8,-,0.00,,Overcast,330,2012-10-24 12:06:00
6:53 AM,35.1,33.1,92,29.98,10.0,North,6.9,-,0.00,,Overcast,10,2012-10-24 12:53:00
7:53 AM,35.1,30.0,82,29.96,10.0,NNW,5.8,-,0.00,,Overcast,330,2012-10-24 13:53:00
8:53 AM,36.0,32.0,86,29.98,10.0,North,8.1,-,N/A,,Mostly Cloudy,10,2012-10-24 14:53:00
9:16 AM,35.6,32.0,87,29.99,10.0,NNW,8.1,-,N/A,,Mostly Cloudy,340,2012-10-24 15:16:00
9:53 AM,36.0,33.1,89,29.99,10.0,NNW,3.5,-,N/A,,Scattered Clouds,330,2012-10-24 15:53:00
10:00 AM,35.6,33.8,93,29.99,10.0,NNW,4.6,-,N/A,,Mostly Cloudy,330,2012-10-24 16:00:00
10:11 AM,37.4,33.8,87,30.00,10.0,NNW,4.6,-,N/A,,Mostly Cloudy,340,2012-10-24 16:11:00
10:42 AM,37.4,33.8,87,30.00,10.0,North,3.5,-,N/A,,Mostly Cloudy,350,2012-10-24 16:42:00
10:53 AM,37.9,32.0,79,29.99,10.0,Calm,Calm,-,N/A,,Scattered Clouds,0,2012-10-24 16:53:00
11:33 AM,39.2,33.8,81,29.99,10.0,North,3.5,-,N/A,,Mostly Cloudy,350,2012-10-24 17:33:00
11:53 AM,39.9,33.1,77,29.99,10.0,NNW,4.6,-,N/A,,Scattered Clouds,340,2012-10-24 17:53:00
12:53 PM,41.0,33.1,73,29.99,10.0,Variable,5.8,-,N/A,,Scattered Clouds,0,2012-10-24 18:53:00
1:53 PM,43.0,30.0,60,29.98,10.0,NNW,6.9,-,N/A,,Scattered Clouds,330,2012-10-24 19:53:00
2:53 PM,44.1,27.0,51,29.98,10.0,NNW,6.9,-,N/A,,Partly Cloudy,330,2012-10-24 20:53:00
3:53 PM,45.0,25.0,46,29.98,10.0,North,4.6,-,N/A,,Partly Cloudy,360,2012-10-24 21:53:00
4:53 PM,43.0,25.0,49,30.01,10.0,Variable,4.6,-,N/A,,Mostly Cloudy,0,2012-10-24 22:53:00
5:53 PM,42.1,28.9,60,30.02,10.0,West,3.5,-,N/A,,Mostly Cloudy,280,2012-10-24 23:53:00
7:53 PM,39.9,30.9,70,30.06,10.0,SSW,3.5,-,N/A,,Clear,200,2012-10-25 01:53:00
8:53 PM,37.9,30.9,76,30.07,10.0,Calm,Calm,-,N/A,,Clear,0,2012-10-25 02:53:00
9:35 PM,37.4,30.2,75,30.07,10.0,South,5.8,-,N/A,Thunderstorm,Mostly Cloudy,170,2012-10-25 03:35:00
9:53 PM,37.9,30.0,73,30.08,10.0,South,11.5,-,N/A,,Overcast,190,2012-10-25 03:53:00
10:19 PM,37.4,33.8,87,30.10,10.0,SSW,9.2,-,0.00,Rain,Light Rain,200,2012-10-25 04:19:00
10:50 PM,37.4,33.8,87,30.10,10.0,SE,5.8,-,0.01,Rain,Light Rain,130,2012-10-25 04:50:00
10:53 PM,36.0,33.1,89,30.10,10.0,SE,8.1,-,0.01,Rain,Light Rain,140,2012-10-25 04:53:00
11:53 PM,35.1,33.1,92,30.10,10.0,SSE,4.6,-,N/A,,Mostly Cloudy,150,2012-10-25 05:53:00